Location: Fredericksburg
(30.2750°N, 98.8720°W)
Time: 03:16:49
(UTC-05:00)

PCSat - Visible Passes

Search period start: 24 March 2017 00:00
Search period end: 03 April 2017 00:00
Orbit: 785 x 795 km, 67.1° (Epoch: 22 March)

Date Brightness Start Highest point End Pass type
(mag) Time Alt. Az. Time Alt. Az. Time Alt. Az.
24 Mar 9.9 21:10:37 10° NNW 21:15:59 64° WSW 21:20:59 12° SSE visible
25 Mar 9.5 20:39:42 10° NNW 20:45:09 88° ENE 20:50:34 10° SSE visible
26 Mar 9.6 20:08:54 10° NNW 20:14:17 61° ENE 20:19:37 10° SE visible
26 Mar 12.3 21:54:49 10° WNW 21:57:03 13° WSW 21:59:18 10° SW visible
27 Mar 12.1 21:22:39 10° WNW 21:26:22 19° WSW 21:30:05 10° SSW visible
28 Mar 11.6 20:51:06 10° NW 20:55:38 28° WSW 21:00:10 10° SSW visible
29 Mar 11.0 20:19:51 10° NW 20:24:53 40° WSW 20:29:55 10° S visible
01 Apr 12.7 20:33:21 10° W 20:35:09 12° WSW 20:36:58 10° WSW visible
